This demonstration page uses our WeatherBlox Daily Observations layout. Learn more.

Left ArrowRight Arrow

Hourly Observations for December 9, 2019

Temp ( °F °C ) Dew Point ( °F °C ) Humidity (%) Winds ( mph kmh ) Pressure ( in mb ) Visibility ( mi km ) Precip ( " mm )
12:53 am 00:53 Cloudy 10 -12.2 6 -14.4 84 84 SW 18 30 30.14 1021 10 16 0.00 0.00
1:53 am 01:53 Cloudy 12 -11.1 7 -13.9 80 80 SW 15 24 30.13 1020 10 16 0.00 0.00
2:53 am 02:53 Mostly Cloudy 12 -11.1 6 -14.4 77 77 SW 18 30 30.14 1021 10 16 0.00 0.00
3:53 am 03:53 Cloudy 15 -9.4 8 -13.3 74 74 SW 22 35 30.12 1020 10 16 0.00 0.00
4:53 am 04:53 Cloudy 16 -8.9 9 -12.8 74 74 SW 23 37 30.11 1020 10 16 0.00 0.00
5:53 am 05:53 Cloudy 18 -7.8 10 -12.2 71 71 SW 20 31 30.11 1020 10 16 0.00 0.00
6:53 am 06:53 Cloudy 19 -7.2 11 -11.7 71 71 SW 23 37 30.11 1020 10 16 0.00 0.00
7:53 am 07:53 Cloudy 20 -6.7 13 -10.6 74 74 SW 22 35 30.12 1020 10 16 0.00 0.00
8:53 am 08:53 Cloudy 23 -5 16 -8.9 74 74 WSW 13 20 30.16 1021 10 16 0.00 0.00
9:53 am 09:53 Cloudy 26 -3.3 21 -6.1 81 81 WNW 13 20 30.16 1021 7 11 0.00 0.00
10:24 am 10:24 Cloudy with Light Snow 27 -3 21 -6 80 80 W 14 22 30.16 1021 2 3 0.00 0.00
10:28 am 10:28 Cloudy with Light Snow 26 -3.3 21 -6.1 81 81 W 15 24 30.17 1022 1 2 0.00 0.00
10:51 am 10:51 Cloudy with Light Snow 27 -3 21 -6 80 80 WNW 14 22 30.17 1022 1 1 0.00 0.00
10:53 am 10:53 Cloudy with Light Snow 26 -3.3 22 -5.6 84 84 WNW 15 24 30.18 1022 1 2 0.01 0.25
11:05 am 11:05 Cloudy with Light Snow 26 -3.3 22 -5.6 84 84 WNW 13 20 30.18 1022 2 3 0.00 0.00
11:13 am 11:13 Cloudy with Light Snow 26 -3.3 22 -5.6 84 84 WNW 13 20 30.18 1022 3 4 0.00 0.00
11:20 am 11:20 Cloudy with Light Snow 26 -3.3 22 -5.6 84 84 WNW 13 20 30.18 1022 6 10 0.00 0.00
11:34 am 11:34 Cloudy with Light Snow 26 -3.3 21 -6.1 81 81 NW 14 22 30.18 1022 8 13 0.00 0.00
11:53 am 11:53 Mostly Cloudy 26 -3.3 21 -6.1 81 81 WNW 13 20 30.16 1022 10 16 0.00 0.00
12:53 pm 12:53 Cloudy 25 -3.9 17 -8.3 72 72 N 10 17 30.18 1022 10 16 0.00 0.00
1:15 pm 13:15 Cloudy 24 -4.4 16 -8.9 71 71 N 10 17 30.21 1023 10 16 0.00 0.00
1:53 pm 13:53 Cloudy with Light Snow 23 -5 15 -9.4 72 72 NNW 13 20 30.20 1023 4 6 0.00 0.00
2:53 pm 14:53 Cloudy with Light Snow 20 -6.7 11 -11.7 68 68 N 9 15 30.24 1024 4 6 0.00 0.00
3:03 pm 15:03 Cloudy with Light Snow 20 -6.7 11 -11.7 68 68 NNW 12 19 30.27 1025 2 3 0.00 0.00
3:24 pm 15:24 Cloudy 19 -7 10 -12 68 68 N 8 13 30.29 1026 8 13 0.00 0.00
3:53 pm 15:53 Cloudy with Haze 16 -8.9 10 -12.2 77 77 ENE 9 15 30.26 1025 6 10 0.00 0.00
4:53 pm 16:53 Cloudy 14 -10 6 -14.4 71 71 ENE 7 11 30.28 1026 10 16 0.00 0.00
5:53 pm 17:53 Mostly Cloudy 12 -11.1 5 -15 73 73 E 6 9 30.30 1026 10 16 0.00 0.00
6:53 pm 18:53 Cloudy 10 -12.2 4 -15.6 76 76 ESE 3 6 30.31 1027 10 16 0.00 0.00
7:53 pm 19:53 Cloudy 12 -11.1 6 -14.4 77 77 ENE 3 6 30.32 1027 10 16 0.00 0.00
8:53 pm 20:53 Cloudy 12 -11.1 6 -14.4 77 77 E 5 7 30.31 1026 10 16 0.00 0.00
9:53 pm 21:53 Cloudy 12 -11.1 5 -15 73 73 ENE 5 7 30.30 1026 10 16 0.00 0.00
10:53 pm 22:53 Cloudy 12 -11.1 5 -15 73 73 Calm 30.30 1026 10 16 0.00 0.00
11:53 pm 23:53 Cloudy 13 -10.6 6 -14.4 74 74 ENE 3 6 30.29 1026 10 16 0.00 0.00

Powered by AerisWeather